This is the latest recevied weather packets stored in our database for station/object KJ5EHN. If no packets are shown the sender has not sent any weather packets the latest 10 day(s).
| Time | Temp. | Humidity | Pressure | Rain* | Wind** | Luminosity | Snow |
|---|---|---|---|---|---|---|---|
| 1777655066 | 17.78° C | 60% | 1017.8 hPa | 0 mm | - | - | - |
| 1777654764 | 17.78° C | 62% | 1017.9 hPa | 0 mm | - | - | - |
| 1777654462 | 17.78° C | 60% | 1017.9 hPa | 0 mm | - | - | - |
| 1777654159 | 18.33° C | 62% | 1018 hPa | 0 mm | - | - | - |
| 1777653857 | 18.33° C | 63% | 1017.8 hPa | 0 mm | - | - | - |
| 1777653553 | 18.33° C | 63% | 1018.1 hPa | 0 mm | - | - | - |
| 1777653249 | 17.78° C | 68% | 1018 hPa | 0 mm | - | - | - |
| 1777652946 | 16.67° C | 69% | 1017.8 hPa | 0 mm | - | - | - |
| 1777652643 | 16.67° C | 69% | 1017.8 hPa | 0 mm | - | - | - |
| 1777652340 | 16.67° C | 70% | 1017.9 hPa | 0 mm | - | - | - |
| 1777652037 | 16.67° C | 70% | 1017.9 hPa | 0 mm | - | - | - |
| 1777651733 | 16.11° C | 73% | 1017.9 hPa | 0 mm | - | - | - |
| 1777651430 | 15.56° C | 74% | 1018.1 hPa | 0 mm | - | - | - |
| 1777651128 | 15.56° C | 73% | 1018 hPa | 0 mm | - | - | - |
| 1777650824 | 15.56° C | 75% | 1018.1 hPa | 0 mm | - | - | - |
| 1777650521 | 15° C | 76% | 1018.1 hPa | 0 mm | - | - | - |
| 1777650219 | 14.44° C | 76% | 1017.6 hPa | 0 mm | - | - | - |
| 1777649916 | 14.44° C | 77% | 1017.8 hPa | 0 mm | - | - | - |
| 1777649613 | 14.44° C | 77% | 1017.7 hPa | 0 mm | - | - | - |
| 1777649308 | 15° C | 77% | 1017.9 hPa | 0 mm | - | - | - |
| 1777649006 | 15° C | 76% | 1017.6 hPa | 0 mm | - | - | - |
| 1777648704 | 14.44° C | 76% | 1017.6 hPa | 0 mm | - | - | - |
| 1777648400 | 14.44° C | 76% | 1017.7 hPa | 0 mm | - | - | - |
| 1777648096 | 14.44° C | 77% | 1017.9 hPa | 0 mm | - | - | - |
| 1777647793 | 14.44° C | 77% | 1017.7 hPa | 0 mm | - | - | - |
* Rain latest hour (hover to see other rain measurements)
** Current wind speed in m/s (hover to see current wind gust speed)